www.pogodaiklimat.ru

Погода и климат >> Архив погоды >> Гренландия >> Narsarsuaq


ПОГОДА в Narsarsuaq

  • Прогноз погоды в Narsarsuaq
  • Монитор погоды в Narsarsuaq

АРХИВ ПОГОДЫ в Narsarsuaq

Время (UTC), дата Ветер
(напр.,м/с)
 
Видим.   Явления Облачность Т
(С)
Тd
(С)
f
(%)
Тe
(С)
Тes
(С)
Комфортность P
(гПа)
Po
(гПа)
Тmin
(С)
Tmax
(С)
R
(мм)
R24
(мм)
S
(см)
04 14.05 В 6 45 км 6/0
[]
+9.0 -10.5 24 +6 +6 1001.6 997.9
05 14.05 ЮЗ 2 50 км 9/0
[]
+6.9 -9.6 30 +6 +6 1001.3 997.6
06 14.05 ЮВ 1 45 км 9/0
[]
+6.4 -8.4 34 +7 +7 1001.0 997.2 +5.6 +9.3
07 14.05 З 3 50 км 9/0 2000 м
[]
+5.9 -7.8 37 +3 +3 1000.9 997.1
08 14.05 ЮЗ 2 45 км 9/0 2000 м
[]
+5.5 -6.8 41 +4 +5 1001.1 997.3
09 14.05 ЮЗ 5 45 км 9/0
[]
+6.0 -7.0 39 +3 +3 1000.6 996.8
10 14.05 ЮВ 1 45 км 9/0
[]
+7.9 -7.5 33 +8 +10 999.9 996.1
11 14.05 ЮЗ 3 45 км 9/0
[]
+6.6 -5.4 42 +5 +8 998.8 995.0
12 14.05 СВ 9-13
{9}
45 км 9/0
[]
+12.0 -7.9 24 +9 +10 997.6 993.9
13 14.05 СВ 12 35 км 9/0
[]
+12.3 -7.7 24 +9 +9 996.7 993.0
14 14.05 СВ 11 50 км 9/0
[]
+11.9 -7.5 25 +9 +9 997.1 993.4
15 14.05 СВ 9
{16}
50 км слаб. ливневой дождь 9/0 2000 м
[]
+11.7 -6.7 27 +9 +10 997.4 993.8
16 14.05 СВ 7 45 км {ливн. осадки, дождь} 9/0
[]
+11.8 -7.1 26 +9 +11 997.4 993.8
17 14.05 В 2 35 км {ливн. осадки, дождь} 9/0
[]
+12.4 -7.6 24 +12 +18 997.5 993.9
18 14.05 С 2
{16}
35 км 9/0 2000 м
[]
+13.3 -6.8 24 +13 +18 997.7 994.0 +4.2 +13.4
19 14.05 В 11 30 км 1/0
[]
+13.5 -7.7 22 +11 +11 997.2 993.6
20 14.05 СВ 10 30 км 1/0
[]
+12.5 -7.0 25 +10 +10 997.5 993.9
21 14.05 СВ 8
{8}
40 км 1/0
[]
+13.0 -8.1 22 +11 +11 998.6 994.9
22 14.05 СВ 10 45 км 4/0
[]
+12.4 -8.1 23 +9 +9 999.3 995.7
23 14.05 СВ 9 45 км 9/0
[]
+11.4 -7.9 25 +8 +8 999.9 996.2
00 15.05 СВ 5
{8}
50 км 9/0
[]
+10.8 -8.0 26 +9 +9 1000.9 997.2
01 15.05 СВ 7 45 км 9/0
[]
+10.6 -7.7 27 +8 +8 1001.2 997.5
02 15.05 В 2 50 км 9/0
[]
+10.9 -7.9 26 +10 +10 1001.3 997.6
03 15.05 СВ 3 50 км 9/0 2000 м
[]
+10.2 -6.7 30 +9 +9 1001.4 997.7
04 15.05 В 3 50 км 9/0 2000 м
[]
+9.2 -6.3 33 +8 +8 1001.6 997.9
05 15.05 ЮЗ 3 50 км 9/0 2000 м
[]
+7.6 -5.5 39 +5 +5 1001.9 998.1
06 15.05 В 2 50 км 10/0
[]
+6.5 -4.6 45 +5 +5 1002.4 998.6 +5.7 +14.1
07 15.05 СВ 1 50 км 10/0
[]
+6.4 -4.1 47 +7 +7 1003.2 999.4
08 15.05 В 1 45 км 9/9 1500 м
[]
+6.7 -3.8 47 +6 +6 1003.7 1000.0
09 15.05 С 1 35 км 10/0
[]
+5.5 -2.2 58 +5 +6 1004.4 1000.6
10 15.05 ЮЗ 2 35 км 9/0
[]
+6.7 -2.1 53 +5 +7 1005.0 1001.3
11 15.05 СЗ 1 30 км 10/0
[]
+7.4 -2.0 51 +8 +12 1005.7 1002.0
12 15.05 З 2 28 км 10/0
[]
+8.2 -2.1 48 +7 +11 1006.4 1002.6
13 15.05 ЮЗ 2 25 км 10/0
[]
+8.2 -1.8 49 +7 +12 1006.9 1003.1
14 15.05 ЮЗ 5 35 км 9/0
[]
+11.1 -2.0 40 +9 +13 1007.1 1003.4
15 15.05 ЮЗ 4 24 км 9/0 2000 м
[]
+11.7 -3.7 34 +10 +15 1007.5 1003.8
16 15.05 ЮЗ 4 35 км 6/0 2000 м
[]
+11.7 -3.3 35 +10 +16 1007.9 1004.2
17 15.05 ЮЗ 5 30 км 9/0 2000 м
[]
+12.2 -2.5 36 +10 +13 1008.3 1004.6
18 15.05 ЮЗ 5 30 км 9/0
[]
+12.3 -2.4 36 +10 +13 1008.8 1005.1 +5.1 +12.9
19 15.05 ЮЗ 5 24 км 9/0
[]
+12.0 -1.9 38 +10 +12 1009.4 1005.6
20 15.05 ЮЗ 4 29 км 9/9 1500 м
[]
+11.3 -1.5 41 +10 +10 1009.8 1006.1
21 15.05 Ю 3 30 км 1/0 2000 м
[]
+10.1 -1.3 45 +8 +10 1010.5 1006.7
22 15.05 ЮЗ 6 35 км 9/9 1500 м
[]
+7.1 -0.4 59 +3 +3 1011.3 1007.5
23 15.05 ЮЗ 1 27 км 9/9 1500 м
[]
+7.6 -0.5 56 +7 +7 1012.0 1008.2
00 16.05 В 2 30 км 1/0 2000 м
[]
+6.0 -0.5 63 +4 +4 1012.9 1009.1
01 16.05 С 2 30 км 4/0
[]
+4.6 -0.5 69 +2 +2 1013.6 1009.8
02 16.05 СВ 2 28 км 9/0
[]
+4.1 -0.5 72 +2 +2 1014.1 1010.3
03 16.05 В 2 29 км 4/0
[]
+2.7 -1.5 74 0 0 1014.8 1010.9
04 16.05 В 2 28 км 6/0
[]
+3.6 -0.6 74 +1 +1 1015.0 1011.1
05 16.05 штиль 0 25 км 10/0
[]
+2.0 -1.0 80 +1 +1 1016.0 1012.1
06 16.05 В 1 24 км 6/0
[]
+2.6 -0.8 78 +1 +1 1016.4 1012.6 +1.2 +12.6
07 16.05 штиль 0 19 км 6/0 2000 м
[]
+1.8 -0.6 84 +1 +1 1017.0 1013.1
08 16.05 СЗ 1 20 км 10/10 90 м
[]
+2.0 -0.2 85 0 0 1017.5 1013.6
09 16.05 З 2 3900 м 10/10 30 м
[]
+1.7 -0.3 87 -1 -1 1017.8 1013.9
10 16.05 ЮЗ 2 1300 м дымка 10/10 60 м
[]
+1.4 +0.1 91 -2 -2 1018.2 1014.3
11 16.05 ЮЗ 1 2400 м дымка 10/10 60 м
[]
+1.8 -0.1 87 0 0 1018.2 1014.3
12 16.05 ЮЗ 2 1800 м в посл. час туман {дымка} 10/10 60 м
[]
+2.2 +0.1 86 -1 -1 1018.4 1014.5
13 16.05 ЮЗ 2 18 км {туман} 9/9 60 м
[]
+3.7 +0.1 77 +1 +2 1018.2 1014.4
14 16.05 З 3 35 км {туман} 4/4 30 м
[]
+4.7 0.0 72 +1 +7 1018.1 1014.3
15 16.05 З 3 20 км {туман} 1/1 30 м
[]
+6.8 -0.5 60 +4 +13 опасность
простуды
1018.0 1014.2
16 16.05 З 3 28 км {туман} н/о +8.3 -0.3 55 +6 +6 1017.7 1013.9
17 16.05 ЮЗ 4 30 км {туман} н/о +9.4 -0.7 49 +7 +7 1017.5 1013.7
18 16.05 З 3 30 км н/о +10.9 -0.6 45 +9 +9 1017.3 1013.6 +1.1 +11.6
19 16.05 ЮЗ 5 20 км н/о +10.7 -0.4 46 +8 +8 1017.2 1013.4
20 16.05 ЮЗ 5 24 км н/о +10.7 -0.4 46 +8 +8 1017.1 1013.3
21 16.05 ЮЗ 5 26 км н/о +10.2 -0.6 47 +8 +8 1017.2 1013.4
22 16.05 ЮЗ 4 40 км н/о +7.4 -0.2 59 +5 +5 1017.5 1013.7
23 16.05 В 1 40 км н/о +8.1 0.0 57 +8 +8 1017.8 1014.0
00 17.05 ЮВ 1 40 км 6/6 1500 м
[]
+6.8 +0.3 63 +7 +7 1018.2 1014.4
01 17.05 С 1 40 км 9/9 1500 м
[]
+6.2 +0.4 66 +5 +5 1018.2 1014.4
02 17.05 С 2 35 км 9/9 1500 м
[]
+5.6 0.0 67 +4 +4 1018.3 1014.4
03 17.05 Ю 1 45 км 9/9 1500 м
[]
+4.2 -0.4 72 +3 +3 1018.4 1014.6
04 17.05 45 км 9/0
[]
+3.8 0.0 76 1018.5 1014.6
05 17.05 В 2 35 км 9/0
[]
+3.7 -0.1 76 +2 +2 1018.5 1014.7
06 17.05 С 2 45 км 9/9 1440 м
[]
+3.8 -0.2 75 +2 +2 1018.6 1014.8 +3.7 +11.3
07 17.05 штиль 0 40 км 9/9 1500 м
[]
+3.9 -0.1 75 +3 +3 1018.6 1014.7
08 17.05 СЗ 1 40 км 9/9 1500 м
[]
+3.9 -0.1 75 +4 +4 1018.6 1014.7
09 17.05 ЮЗ 2 40 км 9/0
[]
+4.0 +0.2 76 +2 +3 1018.7 1014.9
10 17.05 З 2 27 км 9/0
[]
+4.5 -0.2 72 +2 +4 1018.9 1015.1
11 17.05 З 3 30 км 1/0
[]
+5.8 -0.5 64 +3 +9 1019.0 1015.2
12 17.05 З 3 20 км 4/0
[]
+6.8 -0.2 61 +4 +10 1019.0 1015.2
13 17.05 З 3 30 км н/о +7.9 -0.5 55 +6 +6 1019.1 1015.3
14 17.05 ЮЗ 3 28 км 1/0
[]
+8.4 -0.5 53 +6 +16 опасность
простуды
1019.2 1015.4
15 17.05 ЮЗ 5 28 км 1/0
[]
+10.3 -0.5 47 +8 +15 1019.1 1015.3
16 17.05 ЮЗ 6 30 км 9/0
[]
+9.1 -0.7 50 +6 +9 1019.2 1015.5
17 17.05 ЮЗ 5 35 км 9/0
[]
+8.9 -0.6 51 +6 +10 1019.5 1015.8
18 17.05 ЮЗ 4 30 км 9/9 1500 м
[]
+9.6 -0.8 48 +7 +8 1019.7 1015.9 +3.6 +10.9
19 17.05 ЮЗ 4 40 км 9/9 1500 м
[]
+8.8 -0.4 52 +6 +7 1019.9 1016.1
20 17.05 ЮЗ 5 28 км слаб. ливневой дождь 9/9 1200 м
[]
+7.1 +1.0 65 +4 +4 1020.3 1016.4
21 17.05 ЮЗ 5 50 км в посл. час дождь {ливн. осадки} 9/9 1380 м
[]
+7.3 +0.2 61 +4 +4 1020.8 1016.9
22 17.05 ЮЗ 4 30 км слаб. дождь 9/9 1020 м
[]
+6.4 +1.5 71 +3 +3 1021.0 1017.2
23 17.05 С 1 5000 м дождь {ливн. осадки} 9/9 500 м
[]
+5.9 +2.0 76 +5 +5 1021.2 1017.4
00 18.05 ЮЗ 2 25 км слаб. дождь 9/9 960 м
[]
+4.7 +1.8 81 +3 +3 1021.6 1017.7
01 18.05 ЮЗ 2 35 км слаб. морось {дождь} 9/9 450 м
[]
+4.8 +1.9 81 +3 +3 1021.5 1017.6
02 18.05 ЮЗ 3 50 км {дождь} 9/9 570 м
[]
+4.7 +1.8 81 +2 +2 1021.5 1017.6
03 18.05 ЮЗ 3 50 км {дождь} 9/9 540 м
[]
+4.6 +1.7 81 +1 +1 1021.4 1017.6
04 18.05 ЮЗ 3 50 км {дождь} 9/9 480 м
[]
+4.2 +1.5 83 +1 +1 1021.4 1017.5
05 18.05 ЮЗ 2 45 км {дождь} 10/10 480 м
[]
+3.8 +1.3 84 +2 +2 1021.1 1017.2
06 18.05 ЮЗ 2 18 км 10/10 400 м
[]
+3.8 +1.3 84 +1 +1 1021.0 1017.1 +3.7 +10.4
07 18.05 ЮЗ 3 8000 м 10/10 300 м
[]
+3.6 +1.7 87 0 0 1021.2 1017.3
08 18.05 ЮЗ 1 4700 м дымка 10/10 400 м
[]
+3.7 +2.0 89 +2 +2 1021.1 1017.2
09 18.05 штиль 0 2200 м дымка 10/10 240 м
[]
+3.9 +2.3 89 +3 +3 1020.9 1017.0
10 18.05 штиль 0 17 км 10/10 360 м
[]
+4.1 +2.9 92 +3 +3 1020.7 1016.8
11 18.05 З 2 40 км 10/10 330 м
[]
+4.7 +2.0 83 +3 +3 1020.3 1016.4
12 18.05 З 1 35 км 10/10 1000 м
[]
+5.5 +1.8 77 +4 +4 1020.1 1016.2
13 18.05 З 2 30 км 10/10 1000 м
[]
+7.4 +2.4 71 +6 +6 1019.4 1015.6
14 18.05 ЮЗ 2 40 км 9/9 1000 м
[]
+7.6 +1.2 64 +6 +8 1019.0 1015.2
15 18.05 ЮЗ 2 35 км 6/0
[]
+9.3 +0.9 56 +8 +17 1018.6 1014.8
16 18.05 ЮЗ 4 30 км 9/9 1050 м
[]
+9.2 +1.3 58 +7 +8 1018.2 1014.5
17 18.05 ЮЗ 4 30 км 6/6 1140 м
[]
+10.1 +0.5 51 +8 +11 1017.8 1014.0
18 18.05 ЮЗ 4 30 км н/о +10.1 +0.5 51 +8 +8 1017.5 1013.7 +3.4 +11.0
19 18.05 ЮЗ 4 30 км н/о +10.7 +0.2 48 +9 +9 1017.3 1013.5
20 18.05 ЮЗ 4 30 км н/о +10.9 -0.2 46 +9 +9 1017.2 1013.4
21 18.05 ЮЗ 4 45 км н/о +10.2 -0.6 47 +8 +8 1017.1 1013.4
22 18.05 ЮЗ 3 40 км н/о +9.9 -0.3 49 +8 +8 1017.4 1013.6
23 18.05 ЮЗ 3 50 км н/о +8.4 -0.3 54 +7 +7 1017.8 1014.0
00 19.05 Ю 2 50 км н/о +7.0 -0.3 60 +6 +6 1018.1 1014.3
01 19.05 ЮЗ 2 45 км 9/9 1440 м
[]
+6.6 -0.2 62 +5 +5 1018.5 1014.7
02 19.05 СЗ 1 50 км 10/0
[]
+5.9 +0.5 68 +5 +5 1018.7 1014.9
03 19.05 В 2 45 км осадки 10/10 1500 м
[]
+6.3 +0.7 67 +5 +5 1018.9 1015.0
04 19.05 В 2 26 км слаб. дождь {осадки} 10/10 1080 м
[]
+5.7 +2.4 79 +4 +4 1019.2 1015.4
05 19.05 В 2 22 км слаб. дождь {осадки} 10/10 1020 м
[]
+5.3 +2.6 83 +3 +3 1019.4 1015.6
06 19.05 ЮЗ 3 11 км морось {дождь} 10/10 840 м
[]
+4.6 +1.9 83 +1 +1 1020.0 1016.1 +4.5 +11.4
07 19.05 В 1 11 км слаб. дождь {морось} 10/10 800 м
[]
+4.6 +2.5 86 +4 +4 1020.5 1016.6
08 19.05 ЮЗ 2 26 км в посл. час морось {дождь} 10/10 700 м
[]
+4.6 +2.3 85 +2 +2 1020.6 1016.8
09 19.05 ЮЗ 2 40 км {дождь, морось} 10/10 240 м
[]
+4.7 +2.2 84 +2 +2 1021.0 1017.1
10 19.05 ЮЗ 2 45 км {дождь, морось} 10/10 270 м
[]
+4.8 +1.7 80 +2 +2 1021.3 1017.4
11 19.05 ЮЗ 3 19 км {дождь, морось} 9/9 450 м
[]
+5.3 +1.6 77 +2 +3 1021.1 1017.2
12 19.05 ЮЗ 3 30 км 1/1 540 м
[]
+6.8 +2.3 73 +4 +11 1020.7 1016.9
13 19.05 ЮЗ 2 30 км н/о +8.4 +1.8 63 +7 +7 1020.5 1016.7
14 19.05 З 3 26 км н/о +9.0 +1.1 58 +7 +7 1020.0 1016.2
15 19.05 З 3 27 км 1/0 2000 м
[]
+9.8 +0.8 53 +8 +19 опасность
простуды
1019.4 1015.7
16 19.05 З 3 25 км н/о +10.9 +1.0 50 +9 +9 1019.0 1015.2
17 19.05 З 3 28 км 4/0 2000 м
[]
+11.7 +0.8 47 +11 +19 1018.6 1014.8
18 19.05 З 3 40 км 4/4 1500 м
[]
+11.5 +0.3 46 +10 +15 1018.4 1014.6 +4.3 +12.7
19 19.05 ЮЗ 3 35 км н/о +12.7 -0.6 40 +12 +12 1018.3 1014.6
20 19.05 ЮЗ 4 30 км 9/0 2000 м
[]
+12.9 -1.1 38 +12 +13 1018.4 1014.7
21 19.05 ЮЗ 4 30 км н/о +12.0 -0.9 41 +11 +11 1018.5 1014.7
22 19.05 ЮЗ 4 45 км 1/0 2000 м
[]
+10.6 -1.1 44 +9 +9 1018.5 1014.8
23 19.05 З 2 50 км н/о +10.7 -0.1 47 +10 +10 1019.0 1015.2
00 20.05 В 3 50 км 1/0 2000 м
[]
+9.2 -3.7 40 +8 +8 1019.3 1015.5
01 20.05 В 5 50 км 1/0 2000 м
[]
+10.7 -8.1 26 +9 +9 1019.1 1015.3
02 20.05 В 3 50 км 1/0
[]
+10.6 -8.1 26 +10 +10 1019.0 1015.2
03 20.05 ЮВ 2 50 км 1/0
[]
+7.2 -3.0 48 +6 +6 1019.1 1015.3
04 20.05 З 1 50 км н/о +5.5 -3.8 51 +5 +5 1019.2 1015.3
05 20.05 В 1 50 км н/о +6.7 -4.4 45 +6 +6 1019.0 1015.2
06 20.05 Ю 1 50 км н/о +6.3 -4.2 47 +6 +6 1019.2 1015.4 +4.8 +13.6
07 20.05 В 1 45 км н/о +4.7 -4.5 51 +5 +5 1019.5 1015.7
08 20.05 ЮЗ 3 40 км н/о +5.8 -4.3 48 +4 +4 1019.9 1016.0
09 20.05 В 1 50 км н/о +7.2 -3.3 47 +7 +7 1020.1 1016.2
10 20.05 ЮЗ 1 30 км н/о +8.8 -2.8 44 +10 +10 1020.1 1016.2
11 20.05 З 3 35 км н/о +8.7 -2.0 47 +7 +7 1019.9 1016.1
12 20.05 СЗ 2 35 км н/о +9.7 -1.7 45 +9 +9 1019.9 1016.1
13 20.05 З 2 40 км н/о +9.9 -2.8 41 +9 +9 1019.5 1015.8
14 20.05 З 2 27 км н/о +12.6 -3.7 32 +12 +12 1019.2 1015.5
15 20.05 ЮЗ 4 26 км н/о +13.1 -4.6 29 +12 +12 1018.8 1015.0
16 20.05 ЮЗ 4 35 км н/о +13.8 -4.4 28 +13 +13 1018.4 1014.7
17 20.05 ЮЗ 4 35 км н/о +14.1 -5.1 26 +13 +13 1018.1 1014.4
18 20.05 ЮЗ 4 28 км н/о +14.3 -6.5 23 +13 +13 1018.0 1014.3 +4.3 +15.1
19 20.05 ЮЗ 5 35 км н/о +14.4 -6.4 23 +13 +13 1017.9 1014.2
20 20.05 ЮЗ 4 30 км н/о +13.9 -5.8 25 +13 +13 1017.9 1014.2
21 20.05 ЮЗ 5 45 км н/о +13.1 -4.1 30 +11 +11 1017.8 1014.1
22 20.05 ЮЗ 5 40 км н/о +12.4 -3.9 32 +11 +11 1018.1 1014.4
23 20.05 ЮЗ 5 45 км н/о +10.4 -2.3 41 +8 +8 1018.4 1014.6
00 21.05 ЮВ 3 50 км н/о +9.2 -0.9 49 +8 +8 1019.0 1015.2
01 21.05 ЮЗ 2 45 км н/о +6.8 -1.7 55 +6 +6 1019.5 1015.7
02 21.05 ЮВ 1 50 км н/о +7.7 -0.9 54 +8 +8 1019.9 1016.1

 

Местоположение метеостанции Narsarsuaq (Гренландия): широта 61.13 долгота -45.43 высота над уровнем моря 5 м.

В архиве по умолчанию представлена погода в Narsarsuaq за последнюю неделю. Архивные данные за месяц целиком и за предыдущие месяцы, начиная с января 2011 года, Вы можете получить, выбрав интересующий диапазон дат из раскрывающегося списка и нажав кнопку "Ввод!".


*Определитесь, кто Вы:
робот инопланетянин человек

Внимание! Время в таблицах - всемирное. Для получения местного времени необходимо прибавить поправку, которая равна -3 ч.

Смотрите также архив погоды в соседних городах и на ближайших метеорологических станциях:

Погода в Qaqortoq (Гренландия) (57 км)
Погода в Angisoq (Гренландия) (129 км)
Погода в Nunarsuit (Гренландия) (166 км)
Погода в Prins Christian Sun (Гренландия) (173 км)
Погода в Ikermiuarsuk (Гренландия) (200 км)
Погода в Paamiut (Гренландия) (244 км)
Погода в Ukiivik (Гренландия) (306 км)
Погода в Mittarfik Nuuk (Гренландия) (467 км)
Погода в Nuuk (Гренландия) (467 км)
Погода в Ikermiit (Гренландия) (481 км)

Пояснения к столбцам:

Ветер - указаны скорость ветра в м/с - средняя за 10 мин, порывы в срок и между сроками (в фигурных скобках) и направление, откуда дует ветер: С - северный, СВ - северо-восточный, В - восточный, ЮВ - юго-восточный, Ю - южный, ЮЗ - юго-западный, З - западный, СЗ - северо-западный.
Видимость - горизонтальная дальность видимости в метрах или километрах. При видимости от 1 до 10 км при отсутствии осадков обычно наблюдается дымка, при ухудшении видимости до 1 км и менее - туман. В сухую погоду видимость может ухудшаться дымом, пылью или мглою.
Явления - указаны атмосферные явления, наблюдавшиеся в срок или в последний час перед сроком; фигурными скобками обозначены явления, наблюдавшиеся между сроками (за 1-3 часа до срока); квадратными скобками обозначены град или гололедные отложения с указанием их диаметра в мм.
Облачность - указаны через наклонную черту общая и нижняя облачность в баллах и высота нижней границы облаков в метрах; квадратными скобками обозначены формы облаков: Ci - перистые, Cs - перисто-слоистые, Cc - перисто-кучевые, Ac - высококучевые, As - высокослоистые, Sc - слоисто-кучевые, Ns - слоисто-дождевые, Cu - кучевые, Cb - кучево-дождевые. Подробнее классификацию облаков см. в Атласе облаков (PDF).
T - Температура воздуха - температура, измеренная на высоте 2 м над землей.
Td - Температура точки росы - температура, при понижении до которой содержащийся в воздухе водяной пар достигнет насыщения.
f - Относительная влажность воздуха - влажноcть воздуха, измеренная на высоте 2 м над землей.
Te - Эффективная температура - температура, которую ощущает одетый по сезону человек в тени. Характеристика душности погоды. При расчете учитывается влияние влажности воздуха и скорости ветра на теплоощущения человека.
Tes - Эффективная температура на солнце - температура, которую ощущает человек, с поправкой на солнечный нагрев. Характеристика знойности погоды. Зависит от высоты солнца над горизонтом, облачности и скорости ветра. Ночью, в пасмурную погоду, а также при ветре 12 м/с и более поправка равна нулю.
P - Атмосферное давление - приведенное к уровню моря атмосферное давление.
Po - Атмосферное давление - измеренное на уровне метеостанции атмосферное давление.
Tmin - Минимальная температура - минимум температуры воздуха на высоте 2 м над землей.
Tmax - Максимальная температура - максимум температуры воздуха на высоте 2 м над землей.
R - Количество осадков - Количество выпавших осадков за период времени, мм. При наведении курсора мыши на число - период времени, за который выпало указанное количество осадков.
R24 - Количество осадков - Количество выпавших осадков за 24 часа, мм.
S - Снежный покров - Высота снежного покрова, см. При наведении курсора мыши на число - состояние снежного покрова и степень покрытия местности в баллах.